Estación Meteorológica Peña el Pijo (Robertgarden) [ 07/11/20 22:59:51 CEST ]

Fecha Hora Presion(HPa) Temp (°C) Humedad % Rocio (°C) Viento ( m/s) Direccion Lluvia 1Hora(mm) Lluvia 24H(mm) LLuvia Total(mm)
2020-Apr-10 01:09:39 1011.300 - - - - W     39.88
2020-Apr-10 02:09:32 1010.900 - - - - W     39.88
2020-Apr-10 03:09:35 1010.700 - - - - W     39.88
2020-Apr-10 04:09:16 1010.500 - - - - W     39.88
2020-Apr-10 05:08:54 1010.200 - - - - W     39.88
2020-Apr-10 06:09:07 1010.100 - - - - W     39.88
2020-Apr-10 07:09:41 1010.000 - - - - W     39.88
2020-Apr-10 08:09:39 1010.700 - - - - W     39.88
2020-Apr-10 09:09:43 1010.900 - - - - W     39.88
2020-Apr-10 10:09:51 1011.000 - - - - W     39.88
2020-Apr-10 11:09:54 1011.300 - - - - W     39.88
2020-Apr-10 12:08:59 1011.100 - - - - W     39.88
2020-Apr-10 13:09:12 1011.000 - - - - W     39.88
2020-Apr-10 14:09:09 1010.600 - - - - W     39.88
2020-Apr-10 15:09:03 1010.500 - - - - W     39.88
2020-Apr-10 16:09:43 1010.400 - - - - W     39.88
2020-Apr-10 17:09:01 1010.100 - - - - W     39.88
2020-Apr-10 18:09:13 1010.100 - - - - W     39.88
2020-Apr-10 19:08:57 1010.400 - - - - W     39.88
2020-Apr-10 20:09:34 1010.600 - - - - W     39.88
2020-Apr-10 21:09:14 1010.700 - - - - W     39.88
2020-Apr-10 22:09:39 1011.600 - - - - W     39.88
2020-Apr-10 23:09:02 1011.900 - - - - W     39.88

Temperatura Máxima:    Temperatura Mínima:
Presión Máxima:1011.900 Hpa    Presión Mínima:1010.000 Hpa


Volver